Location: Anan
(43.3550°N, 0.8171°E)
Time: 20:47:49
(UTC+00:00)

Cosmos-2242 - Pass Details

Date: 14 May 2026
Orbit: 565 x 588 km, 82.5° (Epoch: 7 June)

Event Time Altitude Azimuth Distance (km) Brightness Sun altitude
Exits shadow 23:10:14 29° 289° (WNW) 1,047 4.4 -27.1°
Drops below altitude 10° 23:13:45 10° 347° (NNW) 1,874 6.5 -27.2°
Sets 23:16:09 0° 359° (N) 2,774 7.7 -27.3°
